TimePDT,TemperatureF,Dew PointF,Humidity,Sea Level PressureIn,VisibilityMPH,Wind Direction,Wind SpeedMPH,Gust SpeedMPH,PrecipitationIn,Events,Conditions,WindDirDegrees,DateUTC
12:15 AM,55.4,53.6,94,30.12,10.0,WSW,3.5,-,N/A,,Partly Cloudy,250,2013-08-13 07:15:00
12:35 AM,53.6,51.8,94,30.12,10.0,WSW,3.5,-,N/A,,Scattered Clouds,250,2013-08-13 07:35:00
12:55 AM,53.6,53.6,100,30.12,9.0,Calm,Calm,-,N/A,,Overcast,0,2013-08-13 07:55:00
1:15 AM,53.6,51.8,94,30.12,10.0,Calm,Calm,-,N/A,,Overcast,0,2013-08-13 08:15:00
1:35 AM,53.6,51.8,94,30.12,10.0,Calm,Calm,-,N/A,,Overcast,0,2013-08-13 08:35:00
1:55 AM,53.6,51.8,94,30.12,10.0,Calm,Calm,-,N/A,,Mostly Cloudy,0,2013-08-13 08:55:00
2:15 AM,53.6,51.8,94,30.12,10.0,Calm,Calm,-,N/A,,Mostly Cloudy,0,2013-08-13 09:15:00
2:35 AM,53.6,51.8,94,30.13,10.0,Calm,Calm,-,N/A,,Mostly Cloudy,0,2013-08-13 09:35:00
2:55 AM,51.8,50.0,94,30.13,10.0,WSW,4.6,-,N/A,,Scattered Clouds,240,2013-08-13 09:55:00
3:15 AM,53.6,51.8,94,30.13,7.0,Calm,Calm,-,N/A,,Mostly Cloudy,0,2013-08-13 10:15:00
3:35 AM,51.8,51.8,100,30.13,10.0,Calm,Calm,-,N/A,,Overcast,0,2013-08-13 10:35:00
3:55 AM,53.6,51.8,94,30.13,5.0,SW,3.5,-,N/A,,Overcast,230,2013-08-13 10:55:00
4:15 AM,51.8,50.0,94,30.13,5.0,Calm,Calm,-,N/A,,Overcast,0,2013-08-13 11:15:00
4:35 AM,51.8,51.8,100,30.12,5.0,SW,3.5,-,N/A,,Mostly Cloudy,230,2013-08-13 11:35:00
4:55 AM,51.8,50.0,94,30.12,5.0,SW,3.5,-,N/A,,Scattered Clouds,230,2013-08-13 11:55:00
5:15 AM,50.0,50.0,100,30.12,5.0,Calm,Calm,-,N/A,,Clear,0,2013-08-13 12:15:00
5:35 AM,50.0,50.0,100,30.12,10.0,SW,3.5,-,N/A,,Clear,230,2013-08-13 12:35:00
5:55 AM,50.0,48.2,94,30.12,3.0,WSW,3.5,-,N/A,,Clear,250,2013-08-13 12:55:00
6:15 AM,50.0,50.0,100,30.13,3.0,SW,3.5,-,N/A,,Clear,230,2013-08-13 13:15:00
6:35 AM,50.0,50.0,100,30.13,2.5,Calm,Calm,-,N/A,,Clear,0,2013-08-13 13:35:00
6:55 AM,50.0,50.0,100,30.13,2.5,Calm,Calm,-,N/A,,Clear,0,2013-08-13 13:55:00
7:15 AM,51.8,50.0,94,30.14,5.0,Calm,Calm,-,N/A,,Clear,0,2013-08-13 14:15:00
7:35 AM,53.6,51.8,94,30.13,5.0,South,3.5,-,N/A,,Clear,190,2013-08-13 14:35:00
7:55 AM,55.4,51.8,88,30.13,10.0,South,4.6,-,N/A,,Clear,170,2013-08-13 14:55:00
8:15 AM,57.2,51.8,82,30.13,10.0,South,5.8,-,N/A,,Clear,190,2013-08-13 15:15:00
8:35 AM,57.2,53.6,88,30.13,10.0,SSW,3.5,-,N/A,,Clear,200,2013-08-13 15:35:00
8:55 AM,59.0,53.6,82,30.13,10.0,South,3.5,-,N/A,,Clear,190,2013-08-13 15:55:00
9:15 AM,62.6,53.6,72,30.13,10.0,Calm,Calm,-,N/A,,Clear,0,2013-08-13 16:15:00
9:35 AM,64.4,53.6,68,30.13,6.0,Calm,Calm,-,N/A,,Haze,0,2013-08-13 16:35:00
9:55 AM,66.2,53.6,64,30.13,7.0,ENE,4.6,-,N/A,,Clear,60,2013-08-13 16:55:00
10:15 AM,66.2,53.6,64,30.12,5.0,Calm,Calm,-,N/A,,Haze,0,2013-08-13 17:15:00
10:35 AM,68.0,53.6,60,30.12,6.0,East,3.5,-,N/A,,Haze,90,2013-08-13 17:35:00
10:55 AM,68.0,53.6,60,30.12,10.0,ESE,3.5,-,N/A,,Clear,110,2013-08-13 17:55:00
11:15 AM,71.6,53.6,53,30.11,10.0,Calm,Calm,-,N/A,,Clear,0,2013-08-13 18:15:00
11:35 AM,71.6,53.6,53,30.11,8.0,SE,4.6,-,N/A,,Clear,140,2013-08-13 18:35:00
11:55 AM,71.6,55.4,57,30.10,10.0,SW,4.6,-,N/A,,Clear,230,2013-08-13 18:55:00
12:15 PM,73.4,55.4,53,30.09,7.0,SW,3.5,-,N/A,,Clear,230,2013-08-13 19:15:00
12:35 PM,73.4,55.4,53,30.09,10.0,Calm,Calm,-,N/A,,Clear,0,2013-08-13 19:35:00
12:55 PM,75.2,55.4,50,30.08,10.0,WNW,3.5,-,N/A,,Clear,290,2013-08-13 19:55:00
1:15 PM,75.2,53.6,47,30.08,10.0,South,3.5,-,N/A,,Clear,180,2013-08-13 20:15:00
1:35 PM,77.0,53.6,44,30.07,10.0,South,4.6,-,N/A,,Clear,170,2013-08-13 20:35:00
1:55 PM,77.0,51.8,41,30.07,10.0,Calm,Calm,-,N/A,,Clear,0,2013-08-13 20:55:00
2:15 PM,77.0,53.6,44,30.06,10.0,SE,3.5,-,N/A,,Clear,130,2013-08-13 21:15:00
2:35 PM,80.6,51.8,37,30.05,10.0,SE,3.5,-,N/A,,Clear,130,2013-08-13 21:35:00
2:55 PM,80.6,53.6,39,30.04,10.0,Calm,Calm,-,N/A,,Clear,0,2013-08-13 21:55:00
3:15 PM,80.6,51.8,37,30.03,10.0,Calm,Calm,-,N/A,,Clear,0,2013-08-13 22:15:00
3:35 PM,80.6,53.6,39,30.02,10.0,NNE,4.6,-,N/A,,Clear,30,2013-08-13 22:35:00
3:55 PM,80.6,55.4,42,30.02,7.0,NNW,3.5,-,N/A,,Clear,340,2013-08-13 22:55:00
4:55 PM,80.6,53.6,39,30.00,10.0,NNE,5.8,-,N/A,,Clear,30,2013-08-13 23:55:00
5:15 PM,80.6,53.6,39,30.00,5.0,North,5.8,-,N/A,,Haze,10,2013-08-14 00:15:00
5:35 PM,80.6,51.8,37,30.00,10.0,North,3.5,-,N/A,,Clear,10,2013-08-14 00:35:00
5:55 PM,80.6,51.8,37,29.99,10.0,NE,5.8,-,N/A,,Clear,40,2013-08-14 00:55:00
6:15 PM,80.6,51.8,37,29.97,10.0,NNE,4.6,-,N/A,,Clear,20,2013-08-14 01:15:00
6:35 PM,80.6,53.6,39,29.97,10.0,Calm,Calm,-,N/A,,Clear,0,2013-08-14 01:35:00
6:55 PM,80.6,55.4,42,29.96,10.0,Calm,Calm,-,N/A,,Clear,0,2013-08-14 01:55:00
7:15 PM,77.0,57.2,50,29.96,10.0,Calm,Calm,-,N/A,,Clear,0,2013-08-14 02:15:00
7:35 PM,75.2,59.0,57,29.95,9.0,Calm,Calm,-,N/A,,Clear,0,2013-08-14 02:35:00
7:55 PM,71.6,59.0,64,29.94,8.0,Calm,Calm,-,N/A,,Clear,0,2013-08-14 02:55:00
8:15 PM,69.8,57.2,64,29.94,5.0,Calm,Calm,-,N/A,,Haze,0,2013-08-14 03:15:00
8:35 PM,69.8,57.2,64,29.95,5.0,Calm,Calm,-,N/A,,Haze,0,2013-08-14 03:35:00
8:55 PM,66.2,59.0,78,29.95,8.0,Calm,Calm,-,N/A,,Clear,0,2013-08-14 03:55:00
9:15 PM,64.4,57.2,77,29.95,9.0,WSW,3.5,-,N/A,,Clear,250,2013-08-14 04:15:00
9:35 PM,64.4,57.2,77,29.95,8.0,Calm,Calm,-,N/A,,Clear,0,2013-08-14 04:35:00
9:55 PM,62.6,57.2,82,29.95,10.0,Calm,Calm,-,N/A,,Clear,0,2013-08-14 04:55:00
10:15 PM,60.8,55.4,82,29.96,10.0,Calm,Calm,-,N/A,,Mostly Cloudy,0,2013-08-14 05:15:00
10:35 PM,60.8,57.2,88,29.96,10.0,Calm,Calm,-,N/A,,Overcast,0,2013-08-14 05:35:00
10:55 PM,59.0,57.2,94,29.96,10.0,Calm,Calm,-,N/A,,Overcast,0,2013-08-14 05:55:00
11:15 PM,59.0,55.4,88,29.97,10.0,Calm,Calm,-,N/A,,Scattered Clouds,0,2013-08-14 06:15:00
11:35 PM,59.0,55.4,88,29.97,10.0,Calm,Calm,-,N/A,,Mostly Cloudy,0,2013-08-14 06:35:00
11:55 PM,57.2,57.2,100,29.97,8.0,Calm,Calm,-,N/A,,Scattered Clouds,0,2013-08-14 06:55:00